Weather History for Wink, TX

Change the Weather History Date:

Saturday, October 29, 2011

  Actual Average Record
Temperature  
Mean Temperature 50 °F -  
Max Temperature 71 °F 76 °F 91 °F (2003)
Min Temperature 30 °F 43 °F 27 °F (1970)
Degree Days  
Heating Degree Days 15    
Moisture  
Dew Point 30 °F    
Average Humidity 52    
Maximum Humidity 85    
Minimum Humidity 23    
Precipitation  
Precipitation 0.00 in - - ()
Sea Level Pressure  
Sea Level Pressure 30.13 in    
Wind  
Wind Speed 4 mph (SE)    
Max Wind Speed 15 mph    
Max Gust Speed 17 mph    
Visibility 10 miles    
Events      
Averages and records for this station are not official NWS values.
T = Trace of Precipitation, MM = Missing Value Source: NWS Daily Summary

Daily Weather History Graph

Daily Weather History Graph

Search for Another Location

Airport:

Trip Planner

Search our weather history database for the weather conditions in past years. The results will help you decide how hot, cold, wet, or windy it might be!

Date:

Astronomy

Oct. 29, 2011 Rise Set
Actual Time 8:06 AM CDT 7:06 PM CDT
Civil Twilight 7:41 AM CDT 7:31 PM CDT
Nautical Twilight 7:12 AM CDT 7:59 PM CDT
Astronomical Twilight 6:44 AM CDT 8:28 PM CDT
Moon 11:19 AM CDT (10/29) 9:43 PM CDT (10/29)
Length of Visible Light 11h 49m
Length of Day
10h 59m
Waxing Crescent, 12% of the Moon is Illuminated
Oct 29
Waxing Crescent
Nov 2
First Quarter
Nov 10
Full
Nov 18
Last Quarter
Nov 25
New

Hourly Weather History & Observations

Time (CDT) Temp. Windchill Dew Point Humidity Pressure Visibility Wind Dir Wind Speed Gust Speed Precip Events Conditions
12:53 AM 39.9 °F - 32.0 °F 73% 30.28 in 10.0 mi Calm Calm - N/A   Clear
1:53 AM 39.0 °F - 30.9 °F 73% 30.27 in 10.0 mi Calm Calm - N/A   Clear
2:53 AM 36.0 °F 32.1 °F 28.9 °F 76% 30.27 in 10.0 mi NNE 4.6 mph - N/A   Clear
3:53 AM 34.0 °F 31.0 °F 28.9 °F 82% 30.26 in 10.0 mi NNE 3.5 mph - N/A   Clear
4:53 AM 33.8 °F - 28.4 °F 81% 30.27 in 10.0 mi Calm Calm - N/A   Clear
5:53 AM 33.1 °F - 27.0 °F 78% 30.24 in 10.0 mi Calm Calm - N/A   Clear
6:53 AM 30.9 °F - 27.0 °F 85% 30.24 in 10.0 mi Calm Calm - N/A   Clear
7:53 AM 30.9 °F - 26.1 °F 82% 30.25 in 10.0 mi Calm Calm - N/A   Clear
8:53 AM 35.1 °F - 28.0 °F 76% 30.25 in 10.0 mi Calm Calm - N/A   Clear
9:53 AM 43.0 °F - 34.0 °F 71% 30.25 in 10.0 mi Calm Calm - N/A   Clear
10:53 AM 50.0 °F - 35.1 °F 57% 30.23 in 10.0 mi SE 6.9 mph - N/A   Clear
11:53 AM 57.0 °F - 32.0 °F 39% 30.19 in 10.0 mi SSE 15.0 mph - N/A   Clear
12:53 PM 60.1 °F - 30.0 °F 32% 30.16 in 10.0 mi South 11.5 mph - N/A   Clear
1:53 PM 64.0 °F - 30.0 °F 28% 30.10 in 10.0 mi SSE 10.4 mph - N/A   Clear
2:53 PM 66.9 °F - 30.0 °F 25% 30.04 in 10.0 mi SSE 11.5 mph 17.3 mph N/A   Clear
3:53 PM 70.0 °F - 30.0 °F 23% 30.00 in 10.0 mi South 12.7 mph 17.3 mph N/A   Clear
4:53 PM 70.0 °F - 30.9 °F 24% 29.97 in 10.0 mi SSE 6.9 mph - N/A   Clear
5:53 PM 69.8 °F - 30.2 °F 23% 30.00 in 10.0 mi SSE 9.2 mph - N/A   Clear
6:53 PM 66.0 °F - 30.9 °F 27% 29.96 in 10.0 mi SSE 5.8 mph - N/A   Clear
7:53 PM 61.0 °F - 30.9 °F 32% 29.96 in 10.0 mi SE 8.1 mph - N/A   Clear
8:53 PM 57.9 °F - 30.9 °F 36% 29.96 in 10.0 mi SE 8.1 mph - N/A   Clear
9:53 PM 55.9 °F - 32.0 °F 40% 29.95 in 10.0 mi SE 6.9 mph - N/A   Clear
10:53 PM 54.0 °F - 32.0 °F 43% 29.96 in 10.0 mi SE 6.9 mph - N/A   Clear
11:53 PM 51.1 °F - 32.0 °F 48% 29.95 in 10.0 mi SE 5.8 mph - N/A   Clear